"startDT [UTC]","vpos","CH4 [ppm]","stdev(CH4) [ppm]","CO2 [ppm]","stdev(CO2) [ppm]","H2O_reported [%]","stdev(H2O_reported)","CavityPressure [torr]","CavityTemp [C]","OutletValve","CH4_dry [ppm]","CO2_dry [ppm]","DasTemp [C]","EtalonTemp [C]","WarmBoxTemp [C]","MPVPosition","T_ECpre [C]","T_EC1 [C]","T_EC2 [C]","p_inlet [hPa]","p_in [hPa]","p_out [hPa]","T_inlet [C]","RH_inlet [%]","dwpt_inlet [C]","T_vent [C]","RH_vent [%]","dwpt_vent [C]","flow_vent [l min-1]","flow_inlet [l min-1]","dwpt_sample [C]","T_room [C]"
2015-06-26 00:00:00,0.0,1.89103,0.00037,397.353,0.021,0.7890,0.0026,139.999,45.000,34136.48720,1.90609,401.217,32.751,45.068,45.000,0.00,0.10,-272.72,-272.79,-6,982,-4,22.9,21.6,-0.2,22.7,22.1,-0.1,5.73,1.91,-1.4,27.1
2015-06-26 00:01:00,0.0,1.89123,0.00047,397.328,0.029,0.7895,0.0019,140.001,45.000,34135.33602,1.90627,401.197,32.754,45.068,45.000,0.00,0.10,-272.72,-272.79,-6,982,-4,22.9,21.7,-0.2,22.7,22.2,-0.0,5.73,1.91,-1.4,27.1
2015-06-26 00:02:00,0.0,1.89133,0.00039,397.351,0.030,0.7928,0.0019,139.998,45.000,34131.75660,1.90649,401.235,32.751,45.068,45.000,0.00,0.10,-272.72,-272.78,-6,982,-4,22.9,21.7,-0.2,22.7,22.2,0.0,5.73,1.91,-1.4,27.0
2015-06-26 00:03:00,0.0,1.89149,0.00042,397.337,0.033,0.7928,0.0017,139.997,45.000,34133.69547,1.90660,401.221,32.753,45.068,45.000,0.00,0.10,-272.72,-272.78,-6,982,-4,22.9,21.7,-0.1,22.7,22.3,0.0,5.73,1.90,-1.4,27.1
2015-06-26 00:04:00,0.0,1.89163,0.00057,397.335,0.048,0.7898,0.0018,140.003,45.000,34134.31886,1.90671,401.203,32.751,45.068,45.000,0.00,0.10,-272.73,-272.79,-6,982,-4,22.9,21.7,-0.2,22.7,22.2,-0.0,5.73,1.91,-1.4,27.1
2015-06-26 00:05:00,0.0,1.89206,0.00039,397.324,0.022,0.7928,0.0019,139.998,45.000,34132.76062,1.90719,401.210,32.750,45.068,45.000,0.00,0.10,-272.72,-272.79,-6,982,-4,22.9,21.7,-0.1,22.7,22.3,0.0,5.73,1.91,-1.4,27.1
2015-06-26 00:06:00,0.0,1.89193,0.00039,397.318,0.028,0.7929,0.0019,139.999,45.000,34134.31523,1.90705,401.204,32.764,45.068,45.000,0.00,0.10,-272.72,-272.78,-6,982,-4,22.9,21.7,-0.1,22.7,22.3,0.0,5.73,1.91,-1.4,27.1
2015-06-26 00:07:00,0.0,1.89176,0.00045,397.306,0.037,0.7942,0.0024,140.003,45.000,34135.72895,1.90695,401.197,32.777,45.068,45.000,0.00,0.10,-272.73,-272.79,-6,982,-4,22.9,21.8,-0.1,22.7,22.4,0.1,5.73,1.91,-1.4,27.0
2015-06-26 00:08:00,0.0,1.89197,0.00045,397.314,0.027,0.7950,0.0024,140.004,45.000,34135.65901,1.90714,401.207,32.813,45.068,45.000,0.00,0.10,-272.73,-272.79,-6,982,-4,22.9,21.8,-0.1,22.7,22.4,0.1,5.73,1.92,-1.4,27.1
2015-06-26 00:09:00,0.0,1.89209,0.00048,397.295,0.037,0.7931,0.0019,139.999,45.000,34135.42205,1.90720,401.185,32.813,45.068,44.999,0.00,0.10,-272.72,-272.78,-6,982,-4,22.9,21.7,-0.1,22.7,22.3,0.0,5.73,1.91,-1.4,27.0
2015-06-26 00:10:00,0.0,1.89245,0.00030,397.296,0.038,0.7943,0.0025,139.999,45.000,34135.68549,1.90761,401.185,32.813,45.068,45.000,0.00,0.10,-272.72,-272.78,-6,982,-4,22.9,21.8,-0.1,22.7,22.3,0.1,5.73,1.91,-1.4,27.1
2015-06-26 00:11:00,0.0,1.89246,0.00042,397.295,0.033,0.7944,0.0014,140.004,45.000,34134.46713,1.90760,401.188,32.813,45.068,45.000,0.00,0.10,-272.73,-272.79,-5,982,-4,22.9,21.8,-0.1,22.7,22.4,0.1,5.73,1.92,-1.4,27.0
2015-06-26 00:12:00,0.0,1.89262,0.00048,397.208,0.052,0.7937,0.0026,140.004,45.000,34136.70362,1.90778,401.099,32.813,45.068,45.000,0.00,0.10,-272.72,-272.79,-5,982,-4,22.9,21.8,-0.1,22.7,22.3,0.1,5.73,1.91,-1.4,27.1
2015-06-26 00:13:00,0.0,1.89233,0.00048,397.244,0.031,0.7964,0.0015,139.997,45.000,34135.08998,1.90756,401.143,32.813,45.068,45.000,0.00,0.10,-272.72,-272.78,-6,982,-4,22.9,21.8,-0.1,22.7,22.4,0.1,5.73,1.91,-1.4,27.0
2015-06-26 00:14:00,0.0,1.89262,0.00041,397.290,0.033,0.7961,0.0021,139.999,45.000,34134.35070,1.90780,401.191,32.813,45.068,45.000,0.00,0.10,-272.72,-272.79,-6,982,-4,22.9,21.8,-0.1,22.7,22.4,0.1,5.73,1.91,-1.4,27.0
2015-06-26 00:15:00,0.0,1.89263,0.00028,397.288,0.047,0.7950,0.0019,139.995,45.000,34132.22985,1.90780,401.184,32.813,45.068,45.000,0.00,0.10,-272.72,-272.79,-6,982,-4,22.9,21.8,-0.1,22.7,22.4,0.1,5.73,1.91,-1.4,27.1
2015-06-26 00:16:00,0.0,1.89263,0.00043,397.288,0.035,0.7950,0.0013,140.001,45.000,34134.35073,1.90781,401.181,32.812,45.068,45.000,0.00,0.10,-272.72,-272.78,-6,982,-4,22.9,21.8,-0.1,22.7,22.4,0.1,5.73,1.92,-1.4,27.0
2015-06-26 00:17:00,0.0,1.89272,0.00053,397.302,0.069,0.7951,0.0015,139.996,45.000,34131.31480,1.90791,401.192,32.802,45.068,45.000,0.00,0.10,-272.73,-272.79,-6,982,-4,22.9,21.8,-0.1,22.7,22.4,0.1,5.73,1.91,-1.4,27.0
2015-06-26 00:18:00,0.0,1.89257,0.00035,397.322,0.088,0.7959,0.0017,140.002,45.000,34134.34760,1.90778,401.227,32.783,45.068,45.000,0.00,0.10,-272.73,-272.79,-6,982,-4,22.9,21.8,-0.1,22.7,22.4,0.1,5.73,1.92,-1.4,27.1
2015-06-26 00:19:00,0.0,1.89265,0.00044,397.297,0.027,0.7971,0.0013,140.005,45.000,34131.99450,1.90786,401.203,32.799,45.068,45.000,0.00,0.10,-272.72,-272.78,-6,982,-4,22.9,21.9,-0.1,22.7,22.4,0.1,5.73,1.91,-1.4,27.0
2015-06-26 00:20:00,0.0,1.89269,0.00046,397.306,0.027,0.7970,0.0013,139.999,45.000,34131.29450,1.90792,401.212,32.772,45.068,45.000,0.00,0.10,-272.72,-272.78,-6,982,-4,22.9,21.9,-0.1,22.7,22.4,0.1,5.73,1.91,-1.4,27.1
2015-06-26 00:21:00,0.0,1.89296,0.00026,397.263,0.042,0.7963,0.0018,140.005,45.000,34134.24771,1.90815,401.163,32.752,45.068,45.000,0.00,0.10,-272.72,-272.78,-6,982,-4,22.9,21.9,-0.0,22.7,22.4,0.1,5.73,1.91,-1.4,27.0
2015-06-26 00:22:00,0.0,1.89351,0.00032,397.306,0.035,0.7957,0.0018,140.004,45.000,34130.38924,1.90869,401.206,32.749,45.068,45.000,0.00,0.10,-272.72,-272.78,-6,982,-4,22.9,21.9,-0.1,22.7,22.4,0.1,5.73,1.91,-1.4,27.1
2015-06-26 00:23:00,0.0,1.89373,0.00031,397.333,0.037,0.7968,0.0017,140.001,45.000,34130.10951,1.90895,401.237,32.750,45.068,45.000,0.00,0.10,-272.72,-272.78,-6,982,-4,22.9,21.9,-0.1,22.7,22.4,0.1,5.73,1.91,-1.4,27.0
2015-06-26 00:24:00,0.0,1.89337,0.00056,397.287,0.027,0.7978,0.0014,140.000,45.000,34130.56303,1.90865,401.197,32.750,45.068,45.000,0.00,0.10,-272.73,-272.79,-6,982,-4,22.9,21.9,-0.0,22.7,22.5,0.1,5.73,1.91,-1.4,27.0
2015-06-26 00:25:00,0.0,1.89341,0.00030,397.273,0.052,0.7965,0.0024,140.003,45.000,34130.96004,1.90862,401.178,32.755,45.068,45.000,0.00,0.10,-272.72,-272.79,-6,982,-4,22.9,21.9,-0.0,22.7,22.5,0.1,5.73,1.92,-1.4,27.0
2015-06-26 00:26:00,0.0,1.89351,0.00048,397.251,0.028,0.7983,0.0017,139.996,45.000,34129.74290,1.90877,401.158,32.788,45.068,45.000,0.00,0.10,-272.72,-272.78,-6,982,-4,22.9,21.9,-0.0,22.6,22.5,0.1,5.73,1.91,-1.4,27.0
2015-06-26 00:27:00,0.0,1.89334,0.00033,397.274,0.023,0.8003,0.0019,140.000,45.000,34132.45581,1.90862,401.196,32.789,45.068,45.000,0.00,0.10,-272.72,-272.78,-6,982,-4,22.9,22.0,0.0,22.7,22.5,0.2,5.73,1.91,-1.4,27.0
2015-06-26 00:28:00,0.0,1.89322,0.00045,397.233,0.040,0.8008,0.0018,140.003,45.000,34133.70073,1.90851,401.157,32.777,45.068,45.000,0.00,0.10,-272.73,-272.79,-6,982,-4,22.9,22.0,0.0,22.7,22.6,0.2,5.73,1.91,-1.4,27.0
2015-06-26 00:29:00,0.0,1.89379,0.00040,397.268,0.038,0.7998,0.0015,140.000,45.000,34132.92964,1.90903,401.189,32.763,45.068,45.000,0.00,0.10,-272.72,-272.78,-6,982,-4,22.9,22.0,0.0,22.6,22.5,0.2,5.73,1.91,-1.4,27.0
2015-06-26 00:30:00,0.0,1.89384,0.00036,397.239,0.031,0.7987,0.0015,140.002,45.000,34135.06570,1.90916,401.153,32.763,45.068,45.000,0.00,0.10,-272.72,-272.78,-6,982,-4,22.9,22.0,-0.0,22.6,22.5,0.2,5.73,1.92,-1.4,27.0
2015-06-26 00:31:00,0.0,1.89421,0.00041,397.284,0.039,0.7994,0.0021,139.998,45.000,34133.40181,1.90948,401.198,32.768,45.068,45.000,0.00,0.10,-272.73,-272.79,-6,982,-4,22.9,22.0,-0.0,22.6,22.5,0.2,5.73,1.91,-1.4,27.0
2015-06-26 00:32:00,0.0,1.89382,0.00032,397.286,0.034,0.8003,0.0021,139.994,45.000,34133.32726,1.90911,401.207,32.775,45.068,45.000,0.00,0.10,-272.72,-272.78,-6,982,-4,22.9,22.0,0.0,22.7,22.5,0.2,5.73,1.91,-1.4,27.0
2015-06-26 00:33:00,0.0,1.89374,0.00032,397.247,0.045,0.8017,0.0018,139.999,45.000,34135.06667,1.90910,401.178,32.767,45.068,45.000,0.00,0.10,-272.72,-272.78,-6,982,-4,22.9,22.0,0.0,22.6,22.6,0.2,5.73,1.91,-1.4,27.0
2015-06-26 00:34:00,0.0,1.89341,0.00032,397.257,0.026,0.8013,0.0015,140.003,45.000,34135.95950,1.90871,401.182,32.759,45.068,45.000,0.00,0.10,-272.72,-272.78,-5,982,-4,22.9,22.0,0.0,22.6,22.6,0.2,5.73,1.91,-1.4,27.0
2015-06-26 00:35:00,0.0,1.89359,0.00026,397.233,0.033,0.8031,0.0022,139.997,45.000,34135.59347,1.90894,401.171,32.767,45.068,45.000,0.00,0.10,-272.73,-272.78,-6,982,-4,22.9,22.0,0.0,22.6,22.6,0.2,5.73,1.91,-1.4,27.0
2015-06-26 00:36:00,0.0,1.89351,0.00043,397.248,0.022,0.8012,0.0020,140.000,45.000,34136.97073,1.90879,401.173,32.775,45.068,45.000,0.00,0.10,-272.72,-272.78,-6,982,-4,22.9,22.0,0.0,22.6,22.6,0.2,5.73,1.91,-1.4,27.0
2015-06-26 00:37:00,0.0,1.89371,0.00043,397.229,0.036,0.8019,0.0018,139.999,45.000,34136.00860,1.90909,401.158,32.792,45.068,45.000,0.00,0.10,-272.72,-272.78,-6,982,-4,22.9,22.0,0.0,22.6,22.6,0.2,5.73,1.92,-1.4,27.0
2015-06-26 00:38:00,0.0,1.89408,0.00029,397.275,0.039,0.8019,0.0021,139.999,45.000,34135.49982,1.90938,401.203,32.772,45.068,45.000,0.00,0.10,-272.72,-272.79,-6,981,-4,22.9,22.0,0.1,22.6,22.6,0.2,5.73,1.91,-1.4,27.0
2015-06-26 00:39:00,0.0,1.89396,0.00047,397.269,0.071,0.8017,0.0016,140.003,45.000,34135.37433,1.90928,401.199,32.752,45.068,45.000,0.00,0.10,-272.72,-272.78,-6,981,-4,22.9,22.1,0.1,22.6,22.6,0.2,5.73,1.91,-1.4,27.0
2015-06-26 00:40:00,0.0,1.89406,0.00027,397.256,0.032,0.8026,0.0022,139.999,45.000,34134.09777,1.90938,401.189,32.762,45.068,45.000,0.00,0.10,-272.72,-272.78,-6,982,-4,22.9,22.1,0.1,22.6,22.6,0.2,5.73,1.91,-1.4,27.0
2015-06-26 00:41:00,0.0,1.89384,0.00037,397.247,0.034,0.8034,0.0020,140.004,45.000,34134.62282,1.90921,401.182,32.771,45.068,45.000,0.00,0.10,-272.73,-272.79,-6,982,-4,22.9,22.1,0.1,22.6,22.6,0.2,5.73,1.92,-1.4,27.0
2015-06-26 00:42:00,0.0,1.89428,0.00044,397.254,0.036,0.8037,0.0015,139.999,45.000,34130.81205,1.90964,401.192,32.772,45.068,45.000,0.00,0.10,-272.72,-272.79,-6,982,-4,22.9,22.1,0.1,22.6,22.7,0.3,5.73,1.92,-1.4,27.0
2015-06-26 00:43:00,0.0,1.89432,0.00038,397.226,0.040,0.8049,0.0020,140.003,45.000,34130.57504,1.90969,401.173,32.763,45.068,45.000,0.00,0.10,-272.72,-272.79,-5,982,-4,22.9,22.1,0.1,22.6,22.7,0.2,5.73,1.91,-1.4,27.0
2015-06-26 00:44:00,0.0,1.89434,0.00041,397.206,0.020,0.8040,0.0020,140.000,45.000,34129.21340,1.90973,401.145,32.769,45.068,45.000,0.00,0.10,-272.72,-272.79,-6,982,-4,22.8,22.1,0.1,22.6,22.7,0.2,5.73,1.92,-1.4,27.0
2015-06-26 00:45:00,0.0,1.89411,0.00041,397.202,0.034,0.8044,0.0013,139.999,45.000,34128.58862,1.90951,401.144,32.787,45.068,45.000,0.00,0.10,-272.72,-272.79,-6,982,-4,22.8,22.1,0.1,22.6,22.7,0.2,5.73,1.91,-1.4,27.0
2015-06-26 00:46:00,0.0,1.89383,0.00046,397.193,0.029,0.8059,0.0016,140.001,45.000,34129.93435,1.90923,401.141,32.763,45.068,45.000,0.00,0.10,-272.72,-272.78,-6,982,-4,22.8,22.2,0.1,22.6,22.7,0.3,5.73,1.91,-1.4,27.0
2015-06-26 00:47:00,0.0,1.89390,0.00033,397.165,0.050,0.8072,0.0018,139.998,45.000,34128.91432,1.90933,401.119,32.750,45.068,45.000,0.00,0.10,-272.73,-272.78,-6,982,-4,22.8,22.2,0.2,22.6,22.8,0.3,5.73,1.91,-1.4,27.0
2015-06-26 00:48:00,0.0,1.89383,0.00042,397.164,0.052,0.8104,0.0017,140.001,45.000,34130.34033,1.90930,401.137,32.732,45.068,45.000,0.00,0.10,-272.73,-272.78,-6,982,-4,22.8,22.3,0.2,22.6,22.8,0.3,5.73,1.92,-1.4,27.0
2015-06-26 00:49:00,0.0,1.89358,0.00046,397.142,0.047,0.8108,0.0020,140.002,45.000,34132.29557,1.90913,401.121,32.703,45.068,45.000,0.00,0.10,-272.72,-272.78,-6,982,-4,22.9,22.3,0.2,22.6,22.9,0.3,5.73,1.92,-1.4,27.0
2015-06-26 00:50:00,0.0,1.89387,0.00052,397.112,0.026,0.8106,0.0021,140.001,45.000,34131.78116,1.90939,401.082,32.690,45.069,45.000,0.00,0.10,-272.72,-272.78,-6,982,-4,22.8,22.3,0.2,22.6,22.9,0.3,5.73,1.92,-1.4,27.0
2015-06-26 00:51:00,0.0,1.89397,0.00031,397.137,0.033,0.8109,0.0014,140.001,45.000,34128.20617,1.90939,401.107,32.706,45.069,45.000,0.00,0.10,-272.72,-272.79,-6,981,-4,22.8,22.3,0.2,22.6,22.9,0.3,5.73,1.91,-1.4,27.0
2015-06-26 00:52:00,0.0,1.89432,0.00045,397.170,0.037,0.8116,0.0018,140.000,45.000,34124.81752,1.90983,401.148,32.709,45.069,45.000,0.00,0.10,-272.72,-272.78,-6,982,-4,22.8,22.4,0.2,22.6,22.9,0.4,5.73,1.91,-1.4,27.0
2015-06-26 00:53:00,0.0,1.89420,0.00060,397.142,0.024,0.8119,0.0016,140.003,45.000,34128.90293,1.90973,401.122,32.720,45.069,45.000,0.00,0.10,-272.72,-272.78,-6,981,-4,22.8,22.4,0.2,22.6,22.9,0.4,5.73,1.91,-1.4,27.0
2015-06-26 00:54:00,0.0,1.89389,0.00048,397.140,0.047,0.8131,0.0017,140.003,45.000,34128.94076,1.90950,401.126,32.734,45.068,45.000,0.00,0.10,-272.72,-272.78,-6,981,-4,22.8,22.4,0.2,22.6,22.9,0.4,5.73,1.91,-1.4,27.0
2015-06-26 00:55:00,0.0,1.89412,0.00039,397.144,0.025,0.8123,0.0017,139.999,45.000,34125.45592,1.90964,401.125,32.734,45.068,45.000,0.00,0.10,-272.73,-272.79,-6,981,-4,22.8,22.4,0.2,22.6,22.9,0.4,5.73,1.91,-1.4,27.0
2015-06-26 00:56:00,0.0,1.89418,0.00046,397.135,0.030,0.8120,0.0018,140.002,45.000,34125.48857,1.90969,401.112,32.744,45.068,45.000,0.00,0.10,-272.72,-272.78,-6,981,-4,22.9,22.4,0.2,22.6,22.9,0.4,5.73,1.91,-1.4,27.0
2015-06-26 00:57:00,0.0,1.89416,0.00036,397.158,0.023,0.8123,0.0015,140.003,45.000,34126.11079,1.90969,401.139,32.723,45.068,45.000,0.00,0.10,-272.72,-272.78,-6,981,-4,22.8,22.4,0.2,22.6,22.9,0.4,5.73,1.91,-1.4,27.0
2015-06-26 00:58:00,0.0,1.89430,0.00048,397.140,0.043,0.8141,0.0026,140.003,45.000,34128.04492,1.90987,401.130,32.692,45.068,45.000,0.00,0.10,-272.72,-272.79,-6,982,-4,22.8,22.4,0.3,22.6,23.0,0.4,5.73,1.91,-1.4,27.0
2015-06-26 00:59:00,0.0,1.89397,0.00041,397.131,0.039,0.8146,0.0020,140.001,45.000,34125.94174,1.90957,401.122,32.691,45.068,45.000,0.00,0.10,-272.72,-272.78,-6,982,-4,22.8,22.4,0.3,22.6,23.0,0.4,5.73,1.92,-1.4,27.0
2015-06-26 01:00:00,0.0,1.89389,0.00031,397.137,0.033,0.8148,0.0019,140.000,45.000,34124.85727,1.90946,401.131,32.709,45.068,45.000,0.00,0.10,-272.73,-272.77,-6,982,-4,22.8,22.5,0.3,22.6,23.0,0.4,5.73,1.92,-1.4,27.0
2015-06-26 01:01:00,0.0,1.89368,0.00032,397.138,0.031,0.8151,0.0019,140.001,45.000,34127.26958,1.90925,401.134,32.697,45.069,45.000,0.00,0.10,-272.73,-272.78,-6,982,-4,22.8,22.5,0.3,22.6,23.0,0.4,5.73,1.91,-1.4,27.0
2015-06-26 01:02:00,0.0,1.89349,0.00040,397.132,0.042,0.8143,0.0022,139.999,45.000,34125.97594,1.90909,401.123,32.691,45.069,45.000,0.00,0.10,-272.72,-272.78,-6,982,-4,22.8,22.4,0.2,22.6,23.0,0.4,5.73,1.91,-1.4,27.0
2015-06-26 01:03:00,0.0,1.89399,0.00044,397.137,0.049,0.8131,0.0017,140.001,45.000,34127.10364,1.90947,401.120,32.687,45.069,45.000,0.00,0.10,-272.72,-272.78,-6,982,-4,22.8,22.4,0.2,22.6,23.0,0.4,5.73,1.91,-1.4,27.0
2015-06-26 01:04:00,0.0,1.89366,0.00055,397.139,0.024,0.8153,0.0027,140.005,45.000,34128.42235,1.90930,401.136,32.688,45.069,45.000,0.00,0.10,-272.72,-272.78,-6,982,-4,22.8,22.5,0.3,22.6,23.0,0.4,5.73,1.91,-1.5,26.9
2015-06-26 01:05:00,0.0,1.89353,0.00040,397.083,0.044,0.8166,0.0018,140.003,45.000,34130.73958,1.90912,401.085,32.683,45.069,45.000,0.00,0.10,-272.72,-272.79,-5,981,-4,22.8,22.5,0.3,22.6,23.1,0.5,5.73,1.91,-1.5,27.0
2015-06-26 01:06:00,0.0,1.89366,0.00041,397.092,0.024,0.8168,0.0017,140.002,45.000,34129.67531,1.90927,401.094,32.664,45.068,45.000,0.00,0.10,-272.72,-272.78,-6,981,-4,22.8,22.5,0.3,22.6,23.1,0.5,5.73,1.91,-1.4,27.0
2015-06-26 01:07:00,0.0,1.89388,0.00047,397.098,0.031,0.8153,0.0023,139.999,45.000,34126.84870,1.90948,401.096,32.658,45.068,45.000,0.00,0.10,-272.72,-272.78,-6,981,-4,22.8,22.5,0.3,22.6,23.0,0.4,5.73,1.91,-1.4,27.0
2015-06-26 01:08:00,0.0,1.89354,0.00051,397.116,0.025,0.8133,0.0014,139.998,45.000,34127.52193,1.90907,401.100,32.665,45.068,45.000,0.00,0.10,-272.73,-272.79,-6,981,-4,22.8,22.4,0.2,22.6,23.0,0.4,5.73,1.91,-1.4,27.0
2015-06-26 01:09:00,0.0,1.89395,0.00038,397.134,0.023,0.8137,0.0018,139.999,45.000,34126.30256,1.90953,401.122,32.681,45.068,45.000,0.00,0.10,-272.72,-272.79,-6,981,-4,22.8,22.5,0.2,22.6,23.0,0.4,5.73,1.91,-1.5,27.0
2015-06-26 01:10:00,0.0,1.89389,0.00043,397.110,0.031,0.8150,0.0018,140.004,45.000,34124.30191,1.90951,401.103,32.681,45.068,45.000,0.00,0.10,-272.72,-272.78,-6,982,-4,22.8,22.5,0.3,22.6,23.0,0.4,5.73,1.91,-1.5,27.0
2015-06-26 01:11:00,0.0,1.89400,0.00044,397.132,0.039,0.8147,0.0014,140.001,45.000,34124.37098,1.90959,401.126,32.686,45.068,45.000,0.00,0.10,-272.73,-272.78,-6,981,-4,22.8,22.5,0.3,22.6,23.0,0.4,5.73,1.92,-1.4,27.0
2015-06-26 01:12:00,0.0,1.89402,0.00046,397.108,0.024,0.8155,0.0020,139.997,45.000,34121.44850,1.90958,401.104,32.686,45.068,45.000,0.00,0.10,-272.73,-272.78,-6,982,-4,22.8,22.5,0.3,22.6,23.0,0.4,5.73,1.92,-1.4,27.0
2015-06-26 01:13:00,0.0,1.89371,0.00031,397.072,0.047,0.8167,0.0013,140.000,45.000,34121.43726,1.90932,401.073,32.688,45.068,45.000,0.00,0.10,-272.72,-272.78,-6,982,-4,22.8,22.5,0.3,22.6,23.1,0.4,5.73,1.91,-1.4,27.0
2015-06-26 01:14:00,0.0,1.89376,0.00036,397.111,0.030,0.8170,0.0015,139.995,45.000,34119.65847,1.90937,401.116,32.687,45.068,45.000,0.00,0.10,-272.73,-272.78,-5,981,-4,22.8,22.5,0.3,22.6,23.1,0.4,5.73,1.92,-1.5,27.0
2015-06-26 01:15:00,0.0,1.89411,0.00055,397.113,0.028,0.8159,0.0027,140.005,45.000,34120.56003,1.90975,401.110,32.688,45.068,45.000,0.00,0.10,-272.73,-272.79,-5,982,-4,22.8,22.5,0.3,22.6,23.1,0.5,5.73,1.91,-1.4,27.0
2015-06-26 01:16:00,0.0,1.89398,0.00041,397.124,0.028,0.8173,0.0023,139.998,45.000,34119.00201,1.90958,401.131,32.689,45.068,45.000,0.00,0.10,-272.72,-272.78,-5,982,-4,22.8,22.6,0.3,22.6,23.1,0.5,5.73,1.91,-1.5,27.0
2015-06-26 01:17:00,0.0,1.89359,0.00039,397.118,0.033,0.8175,0.0012,140.000,45.000,34119.68605,1.90924,401.123,32.688,45.068,45.000,0.00,0.10,-272.72,-272.78,-6,982,-4,22.8,22.5,0.3,22.6,23.1,0.5,5.73,1.91,-1.5,27.0
2015-06-26 01:18:00,0.0,1.89311,0.00037,397.116,0.037,0.8188,0.0027,140.004,45.000,34119.46969,1.90881,401.131,32.688,45.068,45.000,0.00,0.10,-272.73,-272.78,-6,982,-4,22.8,22.6,0.3,22.6,23.1,0.5,5.73,1.91,-1.5,27.0
2015-06-26 01:19:00,0.0,1.89369,0.00037,397.086,0.028,0.8192,0.0013,139.998,45.000,34119.22043,1.90930,401.101,32.688,45.068,45.000,0.00,0.10,-272.72,-272.78,-5,981,-4,22.8,22.6,0.3,22.6,23.2,0.5,5.73,1.92,-1.4,27.0
2015-06-26 01:20:00,0.0,1.89316,0.00053,397.081,0.044,0.8199,0.0019,140.001,45.000,34118.35194,1.90886,401.099,32.681,45.068,45.000,0.00,0.10,-272.71,-272.78,-6,982,-4,22.8,22.6,0.3,22.6,23.2,0.5,5.73,1.91,-1.5,27.0
2015-06-26 01:21:00,0.0,1.89344,0.00067,397.103,0.021,0.8194,0.0022,139.998,45.000,34115.38630,1.90907,401.118,32.649,45.068,45.000,0.00,0.10,-272.73,-272.79,-6,981,-4,22.8,22.6,0.4,22.6,23.2,0.5,5.73,1.91,-1.4,27.0
2015-06-26 01:22:00,0.0,1.89396,0.00039,397.127,0.038,0.8195,0.0018,139.998,45.000,34114.65670,1.90966,401.144,32.624,45.068,45.000,0.00,0.10,-272.72,-272.79,-6,981,-4,22.8,22.6,0.3,22.6,23.2,0.5,5.73,1.92,-1.5,27.0
2015-06-26 01:23:00,0.0,1.89380,0.00041,397.100,0.037,0.8190,0.0014,140.005,45.000,34116.95594,1.90947,401.114,32.622,45.069,45.000,0.00,0.10,-272.72,-272.78,-5,982,-4,22.8,22.6,0.3,22.6,23.2,0.5,5.73,1.91,-1.5,27.0
2015-06-26 01:24:00,0.0,1.89416,0.00033,397.117,0.041,0.8181,0.0018,139.998,45.000,34114.27419,1.90980,401.127,32.623,45.069,45.000,0.00,0.10,-272.72,-272.78,-6,981,-4,22.8,22.6,0.3,22.6,23.1,0.5,5.73,1.91,-1.5,27.0
2015-06-26 01:25:00,0.0,1.89402,0.00031,397.121,0.027,0.8179,0.0017,140.002,45.000,34116.59346,1.90967,401.131,32.629,45.069,45.000,0.00,0.10,-272.73,-272.78,-5,981,-4,22.8,22.6,0.3,22.6,23.1,0.5,5.73,1.92,-1.5,26.9
2015-06-26 01:26:00,0.0,1.89352,0.00038,397.100,0.023,0.8188,0.0018,140.001,45.000,34117.28873,1.90922,401.114,32.660,45.069,45.000,0.00,0.10,-272.72,-272.78,-6,981,-5,22.8,22.6,0.3,22.6,23.1,0.5,5.73,1.91,-1.5,26.9
2015-06-26 01:27:00,0.0,1.89360,0.00044,397.101,0.027,0.8210,0.0014,140.002,45.000,34114.92912,1.90927,401.126,32.683,45.068,45.000,0.00,0.10,-272.72,-272.78,-6,981,-4,22.8,22.7,0.4,22.6,23.2,0.5,5.73,1.91,-1.5,27.0
2015-06-26 01:28:00,0.0,1.89363,0.00053,397.090,0.040,0.8227,0.0016,140.000,45.000,34114.98058,1.90937,401.121,32.683,45.068,45.000,0.00,0.10,-272.73,-272.79,-5,982,-4,22.8,22.7,0.4,22.6,23.2,0.5,5.73,1.91,-1.5,26.9
2015-06-26 01:29:00,0.0,1.89319,0.00055,397.081,0.039,0.8224,0.0021,140.000,45.000,34115.56279,1.90894,401.112,32.654,45.068,45.000,0.00,0.10,-272.72,-272.78,-5,981,-4,22.8,22.7,0.4,22.6,23.2,0.5,5.73,1.92,-1.5,27.0
2015-06-26 01:30:00,0.0,1.89336,0.00041,397.081,0.030,0.8213,0.0027,140.000,45.000,34115.50104,1.90904,401.106,32.656,45.068,45.000,0.00,0.10,-272.72,-272.77,-6,981,-5,22.8,22.7,0.4,22.5,23.2,0.5,5.73,1.91,-1.5,27.0
2015-06-26 01:31:00,0.0,1.89371,0.00035,397.067,0.032,0.8221,0.0017,139.996,45.000,34112.86616,1.90945,401.096,32.671,45.068,45.000,0.00,0.10,-272.72,-272.78,-6,981,-4,22.8,22.7,0.4,22.6,23.3,0.5,5.73,1.92,-1.5,27.0
2015-06-26 01:32:00,0.0,1.89290,0.00042,397.065,0.038,0.8248,0.0021,139.996,45.000,34114.13062,1.90868,401.109,32.686,45.068,45.000,0.00,0.10,-272.73,-272.79,-5,980,-4,22.8,22.7,0.4,22.5,23.3,0.5,5.73,1.91,-1.5,27.0
2015-06-26 01:33:00,0.0,1.89248,0.00062,397.024,0.025,0.8231,0.0016,139.998,45.000,34114.39718,1.90820,401.057,32.687,45.068,45.000,0.00,0.10,-272.72,-272.78,-5,981,-4,22.8,22.7,0.4,22.6,23.3,0.6,5.73,1.91,-1.5,26.9
2015-06-26 01:34:00,0.0,1.89317,0.00025,397.023,0.033,0.8251,0.0016,140.000,45.000,34115.57522,1.90896,401.066,32.682,45.068,45.000,0.00,0.10,-272.71,-272.79,-6,981,-4,22.8,22.8,0.4,22.6,23.3,0.6,5.73,1.91,-1.5,26.9
2015-06-26 01:35:00,0.0,1.89330,0.00051,397.070,0.035,0.8231,0.0021,140.002,45.000,34114.28855,1.90899,401.106,32.687,45.068,45.000,0.00,0.10,-272.73,-272.79,-5,981,-4,22.8,22.7,0.4,22.6,23.3,0.6,5.73,1.91,-1.5,26.9
2015-06-26 01:36:00,0.0,1.89292,0.00055,397.049,0.049,0.8231,0.0021,140.000,45.000,34114.17508,1.90874,401.082,32.684,45.068,45.000,0.00,0.10,-272.73,-272.78,-6,981,-4,22.8,22.7,0.4,22.6,23.3,0.5,5.73,1.92,-1.5,26.9
2015-06-26 01:37:00,0.0,1.89293,0.00056,397.058,0.028,0.8220,0.0020,139.997,45.000,34112.96559,1.90861,401.087,32.677,45.068,45.000,0.00,0.10,-272.72,-272.79,-6,982,-4,22.8,22.7,0.4,22.5,23.3,0.5,5.73,1.91,-1.5,27.0
2015-06-26 01:38:00,0.0,1.89297,0.00044,397.077,0.040,0.8229,0.0019,140.004,45.000,34114.28380,1.90873,401.111,32.683,45.068,45.000,0.00,0.10,-272.72,-272.79,-5,982,-4,22.8,22.7,0.4,22.5,23.3,0.5,5.73,1.92,-1.5,26.9
2015-06-26 01:39:00,0.0,1.89281,0.00031,397.058,0.031,0.8238,0.0019,139.994,45.000,34111.47715,1.90855,401.095,32.688,45.068,45.000,0.00,0.10,-272.73,-272.79,-6,983,-5,22.8,22.7,0.4,22.5,23.3,0.5,5.73,1.91,-1.5,26.9
2015-06-26 01:40:00,0.0,1.89297,0.00030,397.072,0.038,0.8236,0.0019,140.005,45.000,34114.17080,1.90871,401.108,32.688,45.068,45.000,0.00,0.10,-272.72,-272.78,-6,981,-4,22.8,22.7,0.4,22.5,23.3,0.5,5.73,1.92,-1.5,27.0
2015-06-26 01:41:00,0.0,1.89255,0.00040,397.057,0.024,0.8248,0.0021,140.002,45.000,34116.58365,1.90837,401.101,32.688,45.068,45.000,0.00,0.10,-272.73,-272.78,-6,981,-4,22.8,22.8,0.4,22.5,23.3,0.6,5.73,1.91,-1.5,27.0
2015-06-26 01:42:00,0.0,1.89282,0.00036,397.052,0.035,0.8250,0.0018,140.002,45.000,34115.53336,1.90857,401.096,32.684,45.068,45.000,0.00,0.10,-272.73,-272.78,-5,981,-2,22.8,22.8,0.4,22.5,23.4,0.6,5.73,1.91,-1.5,27.0
2015-06-26 01:43:00,0.0,1.89240,0.00045,397.041,0.032,0.8254,0.0022,140.002,45.000,34115.98611,1.90813,401.084,32.678,45.068,45.000,0.00,0.10,-272.72,-272.78,-3,983,-5,22.7,22.8,0.4,22.5,23.4,0.6,5.73,1.91,-1.5,26.9
2015-06-26 01:44:00,0.0,1.89264,0.00040,397.035,0.030,0.8245,0.0020,140.004,45.000,34114.69323,1.90844,401.079,32.645,45.068,45.000,0.00,0.10,-272.72,-272.79,-6,983,-3,22.8,22.8,0.4,22.5,23.4,0.6,5.73,1.91,-1.5,26.9
2015-06-26 01:45:00,0.0,1.89239,0.00031,397.030,0.032,0.8229,0.0018,140.002,45.000,34115.00741,1.90810,401.060,32.648,45.068,45.000,0.00,0.10,-272.72,-272.78,-5,980,-7,22.7,22.8,0.4,22.5,23.3,0.6,5.73,1.92,-1.5,26.9
2015-06-26 01:46:00,0.0,1.89244,0.00025,397.035,0.037,0.8254,0.0020,140.003,45.000,34114.79233,1.90823,401.081,32.631,45.069,45.000,0.00,0.10,-272.72,-272.79,-7,982,-3,22.8,22.8,0.4,22.5,23.3,0.6,5.73,1.91,-1.5,26.9
2015-06-26 01:47:00,0.0,1.89206,0.00032,397.016,0.027,0.8235,0.0017,139.997,45.000,34114.82186,1.90782,401.054,32.625,45.069,45.000,0.00,0.10,-272.71,-272.78,-11,980,-2,22.7,22.8,0.4,22.5,23.4,0.6,5.73,1.92,-1.5,27.0